This demonstration page uses our WeatherBlox Daily Observations layout. Learn more.

Left ArrowRight Arrow

30.21309, -93.2044

Hourly Observations for January 14, 2023

Temp ( °F °C ) Dew Point ( °F °C ) Humidity (%) Winds ( mph kmh ) Pressure ( in mb ) Visibility ( mi km ) Precip ( " mm )
12:15 am 00:15 Clear 39 3.9 34 1.2 83 83 Calm 30.33 1027 10 16 0.00 0.00
12:35 am 00:35 Clear 39 3.8 34 1.1 82 82 Calm 30.33 1027 10 16 0.00 0.00
12:55 am 00:55 Clear 39 3.9 34 1 81 81 Calm 30.33 1027 10 16 0.00 0.00
1:15 am 01:15 Clear 38 3.5 34 1.2 85 85 Calm 30.33 1027 10 16 0.00 0.00
1:35 am 01:35 Clear 37 3 35 1.5 90 90 Calm 30.33 1027 10 16 0.00 0.00
1:55 am 01:55 Clear 39 3.9 34 1.3 83 83 NE 5 7 30.33 1027 10 16 0.00 0.00
2:15 am 02:15 Clear 40 4.7 33 0.5 74 74 NE 5 7 30.33 1027 10 16 0.00 0.00
2:35 am 02:35 Clear 40 4.6 33 0.3 74 74 ENE 5 7 30.33 1027 10 16 0.00 0.00
2:55 am 02:55 Clear 40 4.3 33 0.4 76 76 ENE 5 7 30.33 1027 10 16 0.00 0.00
3:15 am 03:15 Clear 40 4.2 33 0.7 78 78 ENE 5 7 30.33 1027 10 16 0.00 0.00
3:35 am 03:35 Clear 40 4.2 34 1 80 80 NE 5 7 30.34 1027 10 16 0.00 0.00
3:55 am 03:55 Clear 38 3.6 34 0.9 82 82 NE 3 6 30.34 1027 10 16 0.00 0.00
4:15 am 04:15 Clear 38 3.6 34 1 83 83 ENE 3 6 30.34 1027 10 16 0.00 0.00
4:35 am 04:35 Clear 38 3.1 33 0.6 84 84 NE 3 6 30.34 1027 10 16 0.00 0.00
4:55 am 04:55 Clear 37 3 33 0.8 85 85 Calm 30.34 1027 10 16 0.00 0.00
5:15 am 05:15 Clear 37 2.8 33 0.8 87 87 E 5 7 30.34 1027 10 16 0.00 0.00
5:35 am 05:35 Clear 37 2.8 34 0.9 87 87 ENE 6 9 30.34 1027 10 16 0.00 0.00
6:00 am 06:00 Clear 37 3 34 1 87 87 E 6 9 30.34 1027 10 16 0.00 0.00
6:45 am 06:45 Clear 36 2 34 1 93 93 E 6 9 30.35 1028 10 16 0.00 0.00
7:45 am 07:45 Sunny 36 2 34 1 93 93 Calm 30.37 1028 10 16 0.00 0.00
8:45 am 08:45 Sunny 41 5 34 1 75 75 ESE 5 7 30.41 1030 10 16 0.00 0.00
9:45 am 09:45 Sunny 45 7 34 1 66 66 E 7 11 30.41 1030 10 16 0.00 0.00
10:45 am 10:45 Sunny 48 9 34 1 57 57 E 9 15 30.39 1029 10 16 0.00 0.00
1:50 pm 13:50 Sunny 55 13 30 -1 38 38 Calm 30.29 1026 10 16 0.00 0.00
2:46 pm 14:46 Sunny 57 14 30 -1 36 36 ESE 6 9 30.27 1025 10 16 0.00 0.00
3:55 pm 15:55 Sunny 57 14 28 -2 33 33 SSE 6 9 30.27 1025 10 16 0.00 0.00
4:55 pm 16:55 Sunny 55 13 27 -3 33 33 Calm 30.26 1025 10 16 0.00 0.00
6:55 pm 18:55 Clear 41 5 34 1 75 75 Calm 30.26 1025 10 16 0.00 0.00
7:55 pm 19:55 Clear 39 4 34 1 81 81 Calm 30.26 1025 10 16 0.00 0.00
8:55 pm 20:55 Clear 37 3 36 2 93 93 S 5 7 30.25 1024 10 16 0.00 0.00
9:45 pm 21:45 Clear 39 4 37 3 93 93 Calm 30.24 1024 10 16 0.00 0.00
10:15 pm 22:15 Clear 40 4.5 36 2.4 86 86 S 3 6 30.23 1024 10 16 0.00 0.00
10:35 pm 22:35 Clear 41 5 37 2.6 84 84 SSE 3 6 30.23 1024 10 16 0.00 0.00
10:55 pm 22:55 Clear 42 5.6 37 2.8 82 82 Calm 30.23 1024 10 16 0.00 0.00
11:15 pm 23:15 Clear 42 5.3 38 3.4 88 88 Calm 30.23 1024 10 16 0.00 0.00
11:35 pm 23:35 Clear 41 4.8 38 3.2 89 89 ESE 5 7 30.22 1023 10 16 0.00 0.00
11:55 pm 23:55 Clear 40 4.7 38 3.2 90 90 E 3 6 30.21 1023 10 16 0.00 0.00

Powered by AerisWeather